Simultaneous Nadir Overpasses (SNOs) Predictions

Prediction of SNOs between AQUA and NPP Satellite Orbit:

Table of predicted SNOs for the next 14.0 days since TLE Epoch: 7/21/2023
Index Date (AQUA) Time (AQUA) Lat,Lon (AQUA) SZA (AQUA ) Date (NPP) Time (NPP) Lat,Lon (NPP) SZA (NPP ) Distance(km) Time Diff (sec)
1 07/22/2023 09:13:05 -80.64, 131.09 109.64 07/22/2023 09:12:14 -80.65, 131.23 109.63 2.74 51
2 07/22/2023 10:02:27 80.69, -60.67 70.28 07/22/2023 10:02:57 80.69, -60.85 70.28 3.12 30
3 07/24/2023 23:47:52 -80.70, -86.90 109.23 07/24/2023 23:47:36 -80.70, -86.79 109.23 2.09 16
4 07/25/2023 00:37:13 80.77, 81.65 70.64 07/25/2023 00:38:17 80.78, 81.82 70.57 3.13 64
5 07/27/2023 13:33:18 80.64,-113.88 71.44 07/27/2023 13:32:19 80.64,-113.94 71.49 1.21 59
6 07/27/2023 14:22:40 -80.73, 54.81 108.73 07/27/2023 14:23:00 -80.73, 54.82 108.74 0.13 20
7 07/30/2023 04:08:04 80.71, 28.16 71.91 07/30/2023 04:07:41 80.71, 28.27 71.91 2.03 23
8 07/30/2023 04:57:27 -80.77,-163.45 108.20 07/30/2023 04:58:24 -80.76,-163.62 108.21 3.23 57
9 08/01/2023 17:53:29 -80.67, 1.46 107.41 08/01/2023 17:52:23 -80.68, 1.58 107.39 2.26 66
10 08/01/2023 18:42:51 80.71, 169.57 72.53 08/01/2023 18:43:06 80.71, 169.42 72.54 2.68 15
11 08/04/2023 08:28:12 -80.74, 143.59 106.89 08/04/2023 08:27:44 -80.74, 143.73 106.89 2.57 28



Historial Predications of SNOs between AQUA and NPP
